User: anonymous   Login
Location: Caltech
(34.1382°N, 118.1253°W)
Time: 16:24:35
(UTC-07:00)
Language:

Iridium 49 - Orbit

View from above orbital plane
View from above orbital plane
View from above satellite
View from above satellite

Ground track
Ground track

The orbit data is extracted from the following two-line orbital elements,

1 25108U 97082E   15111.28734906  .00000032  00000-0  45008-5 0  9997
2 25108 086.3990 224.7320 0002305 096.5936 317.7013 14.34217378907447
Epoch (UTC): 21 April 2015 06:53:46
Eccentricity: 0.0002305
inclination: 86.3990°
perigee height: 776 km
apogee height: 779 km
right ascension of ascending node: 224.7320°
argument of perigee: 96.5936°
revolutions per day: 14.34217378
mean anomaly at epoch: 317.7013°
orbit number at epoch: 90744

The dashed part of the orbit path shows where the satellite is in the earth's shadow,  

DLR